Flag for Argentina Weather past 2 weeks in Mendoza, Mendoza, Argentina

Now
68 °F

Sunny.


Feels Like: 68 °F
Forecast: 54 / 79 °F
Wind: 2 mph from Northeast

Location: Mendoza Aerodrome

Current Time: Aug 29, 2015 at 12:03:27 PM

Latest Report: Aug 29, 2015 at 11:00 AM


Visibility: 10 mi

Pressure: 29.86 "Hg (27.31 "Hg at 767m altitude)

Humidity: 28%

Dew point: 34 °F

Location of MendozaLocation

Historic Weather in Mendoza — Graph

°F

Mendoza temperature yesterday

Maximum temperature yesterday: 91 °F (at 6:00 PM)
Minimum temperature yesterday: 46 °F (at 7:00 AM)
Average temperature yesterday: 68 °F

Past Weeks' High & Low Weather Summary

 TemperatureHumidityPressure
High91 °F (Aug 28, 6:00 PM)93% (Aug 14, 11:00 AM)30.24 "Hg (Aug 14, 11:00 AM)
Low34 °F (Aug 15, 9:00 AM)3% (Aug 28, 6:00 PM)29.59 "Hg (Aug 21, 4:00 PM)
Average57 °F42%29.96 "Hg
* Reported Aug 14 11:00 AM — Aug 29 11:00 AM, Mendoza, Weather by CustomWeather, © 2015

Note: Actual official high and low records may vary slightly from our data, if they occured in-between our weather recording intervals... More about our weather records

Advertising

Mendoza weather history for previous 24 hours

 ConditionsComfort  
Time TempWeatherWind HumidityBarometerVisibility
11:00 AM
Sat, Aug 29
68 °FSunny.2 mph28%29.86 "Hg10 mi
10:00 AM63 °FSunny.3 mph34%29.86 "Hg10 mi
9:00 AM57 °FSunny.2 mph39%29.83 "Hg10 mi
8:00 AM55 °FSunny.2 mph41%29.80 "Hg10 mi
7:00 AM59 °FSunny.3 mph31%29.77 "Hg10 mi
6:00 AM63 °FClear.6 mph30%29.74 "Hg10 mi
5:00 AM77 °FClear.13 mph10%29.71 "Hg10 mi
4:00 AM77 °FClear.9 mph11%29.74 "Hg10 mi
3:00 AM77 °FClear.10 mph11%29.74 "Hg10 mi
2:00 AM79 °FClear.10 mph10%29.74 "Hg10 mi
1:00 AM82 °FClear.13 mph5%29.74 "Hg10 mi
12:00 AM82 °FClear.12 mph5%29.74 "Hg10 mi
11:00 PM
Fri, Aug 28
79 °FClear.12 mph10%29.74 "Hg10 mi
10:00 PM81 °FClear.12 mph8%29.74 "Hg10 mi
9:00 PM88 °FClear.10 mph3%29.74 "Hg10 mi
8:00 PM88 °FPassing clouds.10 mph4%29.71 "Hg5 mi
7:00 PM90 °FPassing clouds.15 mph41%29.71 "Hg5 mi
6:00 PM91 °FPassing clouds.18 mph3%29.68 "Hg5 mi
5:00 PM86 °FPassing clouds.10 mph12%29.68 "HgN/A
4:00 PM86 °FPassing clouds.10 mph12%29.71 "HgN/A
3:00 PM82 °FPassing clouds.9 mph15%29.71 "HgN/A
2:00 PM81 °FPassing clouds.9 mph17%29.74 "HgN/A
1:00 PM77 °FPassing clouds.7 mph17%29.80 "HgN/A
12:00 PM72 °FScattered clouds.8 mph22%29.83 "HgN/A
Weather by CustomWeather, © 2015

See weather overviewHow to use our weather pages